Weather History for Volk, WI

Change the Weather History Date:

Thursday, February 6, 2014

  Actual Average Record
Temperature  
Mean Temperature -2 °F -  
Max Temperature 5 °F 27 °F 44 °F (2002)
Min Temperature -9 °F 15 °F -9 °F (2013)
Degree Days  
Heating Degree Days 67    
Moisture  
Dew Point -10 °F    
Average Humidity 72    
Maximum Humidity 84    
Minimum Humidity 56    
Precipitation  
Precipitation 0.00 in - - ()
Sea Level Pressure  
Sea Level Pressure 30.39 in    
Wind  
Wind Speed 10 mph (West)    
Max Wind Speed 18 mph    
Max Gust Speed 23 mph    
Visibility 10 miles    
Events      
Averages and records for this station are not official NWS values.
T = Trace of Precipitation, MM = Missing Value Source: NWS Daily Summary

Daily Weather History Graph

Daily Weather History Graph

Search for Another Location

Airport:

Trip Planner

Search our weather history database for the weather conditions in past years. The results will help you decide how hot, cold, wet, or windy it might be!

Date:

Astronomy

Feb. 06, 2014 Rise Set
Actual Time 7:12 AM CST 5:18 PM CST
Civil Twilight 6:42 AM CST 5:48 PM CST
Nautical Twilight 6:07 AM CST 6:22 PM CST
Astronomical Twilight 5:34 AM CST 6:56 PM CST
Moon 10:49 AM CST (2/6) 12:28 AM CST (2/6)
Length of Visible Light 11h 06m
Length of Day
10h 06m
Waxing Crescent, 49% of the Moon is Illuminated
Feb 6
Waxing Crescent
Feb 6
First Quarter
Feb 14
Full
Feb 22
Last Quarter
Mar 1
New

Hourly Weather History & Observations

Time (CST) Temp. Windchill Dew Point Humidity Pressure Visibility Wind Dir Wind Speed Gust Speed Precip Events Conditions
12:58 AM -7.8 °F -24.8 °F -11.7 °F 83% 30.39 in 10.0 mi West 9.2 mph - -   Clear
1:58 AM -6.7 °F -22.3 °F -10.8 °F 82% 30.38 in 10.0 mi West 8.1 mph - -   Clear
2:58 AM -8.0 °F -23.9 °F -12.1 °F 82% 30.37 in 10.0 mi West 8.1 mph - -   Clear
3:58 AM -6.5 °F -23.3 °F -10.8 °F 82% 30.36 in 10.0 mi West 9.2 mph - -   Clear
4:25 AM -7.6 °F -23.4 °F -11.2 °F 84% 30.36 in 10.0 mi West 8.1 mph - N/A   Partly Cloudy
4:58 AM -7.8 °F -23.6 °F -11.9 °F 82% 30.45 in 10.0 mi West 8.1 mph - -   Clear
5:58 AM -8.3 °F -25.5 °F -12.6 °F 81% 30.45 in 10.0 mi West 9.2 mph - -   Clear
6:58 AM -8.7 °F -25.9 °F -13.2 °F 81% 30.44 in 10.0 mi West 9.2 mph - -   Clear
7:58 AM -9.4 °F -24.3 °F -13.0 °F 84% 30.45 in 10.0 mi West 6.9 mph - N/A   Partly Cloudy
8:58 AM -5.8 °F -23.4 °F -11.2 °F 77% 30.45 in 10.0 mi West 10.4 mph - N/A   Clear
9:58 AM -4.0 °F -17.8 °F -11.2 °F 71% 30.45 in 10.0 mi WNW 6.9 mph - N/A   Partly Cloudy
10:58 AM -0.4 °F -15.7 °F -9.4 °F 66% 30.45 in 10.0 mi West 9.2 mph - N/A   Partly Cloudy
11:58 AM 1.4 °F -17.6 °F -7.6 °F 66% 30.43 in 10.0 mi West 15.0 mph - N/A   Partly Cloudy
12:58 PM 3.2 °F -15.9 °F -7.6 °F 61% 30.40 in 10.0 mi West 16.1 mph 21.9 mph N/A   Partly Cloudy
1:58 PM 5.0 °F -13.6 °F -7.6 °F 56% 30.38 in 10.0 mi West 16.1 mph 23.0 mph N/A   Partly Cloudy
2:58 PM 5.0 °F -14.7 °F -7.6 °F 56% 30.36 in 10.0 mi West 18.4 mph - N/A   Partly Cloudy
3:58 PM 5.0 °F -12.3 °F -7.6 °F 56% 30.36 in 10.0 mi West 13.8 mph - N/A   Clear
4:58 PM 2.3 °F -15.0 °F -9.6 °F 58% 30.34 in 10.0 mi West 12.7 mph - -   Clear
5:58 PM -0.0 °F -16.3 °F -10.5 °F 61% 30.35 in 10.0 mi West 10.4 mph - -   Clear
6:58 PM -0.4 °F -16.7 °F -11.2 °F 60% 30.35 in 10.0 mi West 10.4 mph - N/A   Clear
7:58 PM -2.2 °F -10.4 °F -11.2 °F 66% 30.36 in 10.0 mi SW 3.5 mph - N/A   Clear
8:58 PM -2.2 °F -18.0 °F -11.2 °F 66% 30.35 in 10.0 mi SW 9.2 mph - N/A   Clear
9:58 PM -4.0 °F -19.0 °F -11.2 °F 71% 30.34 in 10.0 mi WSW 8.1 mph - N/A   Clear
10:58 PM -4.0 °F -19.0 °F -9.4 °F 78% 30.33 in 10.0 mi SW 8.1 mph - N/A   Clear
11:58 PM -4.5 °F -18.4 °F -9.9 °F 78% 30.33 in 10.0 mi WSW 6.9 mph - -   Clear